EDT,Max TemperatureF,Mean TemperatureF,Min TemperatureF,Max Dew PointF,MeanDew PointF,Min DewpointF,Max Humidity, Mean Humidity, Min Humidity, Max Sea Level PressureIn, Mean Sea Level PressureIn, Min Sea Level PressureIn, Max VisibilityMiles, Mean VisibilityMiles, Min VisibilityMiles, Max Wind SpeedMPH, Mean Wind SpeedMPH, Max Gust SpeedMPH,PrecipitationIn, CloudCover, Events, WindDirDegrees
2013-3-1,24,22,21,25,21,18,100,90,80,29.80,29.75,29.66,10,9,2,21,12,26,0.00,8,Snow,297
2013-3-2,21,19,17,18,16,14,93,90,80,29.79,29.75,29.72,10,9,4,22,12,29,0.00,8,Snow,296
2013-3-3,19,16,14,16,12,7,93,81,73,29.80,29.76,29.73,10,10,7,28,19,37,0.00,8,Snow,295
2013-3-4,32,22,12,12,10,7,86,64,41,29.98,29.91,29.80,10,10,3,25,18,41,0.00,2,Snow,287
2013-3-5,37,32,26,36,26,7,100,82,40,29.99,29.84,29.54,10,7,0,16,10,21,0.06,8,Snow,162
2013-3-6,26,24,21,27,25,21,100,99,93,29.98,29.73,29.53,10,4,0,18,14,28,0.04,8,Fog-Snow,317
2013-3-7,28,26,24,25,23,21,100,89,74,30.14,30.06,29.97,10,8,1,24,16,32,0.00,8,Snow,306
2013-3-8,33,27,21,23,20,16,93,78,60,30.28,30.18,30.09,10,8,1,26,16,33,0.00,3,Rain-Snow,310
2013-3-9,46,34,23,21,19,16,93,52,34,30.31,30.27,30.23,10,10,10,10,7,,0.02,0,,92
2013-3-10,50,44,37,28,24,16,53,47,39,30.29,30.24,30.19,10,10,10,16,10,22,0.00,1,,160
2013-3-11,46,42,39,46,33,19,100,71,45,30.20,30.04,29.89,10,8,0,16,11,26,0.05,4,Fog-Rain,161
2013-3-12,46,36,26,46,35,25,100,93,70,29.94,29.85,29.77,10,5,0,25,15,32,0.39,6,Fog-Rain-Snow,266
2013-3-13,30,24,17,27,21,12,100,84,64,29.99,29.91,29.87,10,8,0,29,17,41,0.00,7,Snow,281
2013-3-14,32,23,14,16,13,9,93,68,47,30.07,30.02,29.96,10,10,4,28,20,40,0.00,3,Snow,289
2013-3-15,48,36,23,30,21,10,69,58,50,30.03,29.94,29.85,10,10,10,28,21,36,0.00,1,,275
2013-3-16,60,48,37,46,42,30,100,82,55,29.88,29.78,29.67,10,10,10,23,16,36,0.43,7,Rain-Thunderstorm,271
2013-3-17,44,36,28,39,35,28,100,95,76,30.09,30.00,29.89,10,4,0,21,11,28,0.12,7,Fog-Rain-Snow,311
2013-3-18,37,35,33,37,35,34,100,100,100,30.08,29.97,29.81,10,1,0,14,6,,0.20,8,Fog-Snow,106
2013-3-19,42,35,28,39,23,3,100,67,24,29.92,29.82,29.75,10,8,0,33,20,59,0.00,3,Fog-Rain-Snow,269
2013-3-20,39,30,21,25,10,3,100,46,30,29.94,29.85,29.73,10,10,1,29,18,39,0.00,2,Snow,276
2013-3-21,24,18,12,23,9,3,100,73,49,29.79,29.69,29.63,10,10,3,21,15,30,0.00,6,Snow,297
2013-3-22,33,22,10,12,9,7,85,65,38,29.92,29.84,29.77,10,10,10,20,14,28,0.00,1,,285
2013-3-23,42,32,23,19,13,10,59,46,34,29.96,29.92,29.89,10,10,10,15,9,23,0.00,2,,286
2013-3-24,32,28,24,25,19,12,100,75,44,29.90,29.68,29.44,10,5,0,15,9,18,0.09,4,Fog-Snow,99
2013-3-25,26,24,23,25,21,19,100,89,74,29.64,29.48,29.41,10,5,0,23,7,28,0.13,8,Snow,268
2013-3-26,30,26,23,27,23,19,100,89,64,29.99,29.83,29.64,10,8,0,23,16,28,0.00,8,Snow,292
2013-3-27,28,24,21,25,22,19,100,90,74,30.11,30.05,29.97,10,7,0,21,13,26,0.00,8,Snow,286
2013-3-28,32,28,23,25,21,18,100,75,60,30.20,30.13,30.07,10,9,0,18,13,29,0.00,8,Snow,292
2013-3-29,42,35,28,25,21,18,80,60,36,30.24,30.19,30.15,10,10,10,16,10,24,0.00,4,,290
2013-3-30,48,39,30,27,24,21,80,55,37,30.21,30.15,30.08,10,10,10,14,6,20,0.00,2,,261
2013-3-31,44,40,37,45,37,25,100,85,49,30.08,29.89,29.80,10,7,0,23,11,30,0.12,7,Fog-Rain,216